Location: Berg
(48.5667°N, 13.9833°E)
Time: 03:17:47
(UTC+00:00)

SL-24 R/B - Pass Details

Date: 09 April 2020
Orbit: 505 x 1003 km, 97.4° (Epoch: 06 June)

Event Time Altitude Azimuth Distance (km) Brightness Sun altitude
Rises 18:45:20 0° 17° (NNE) 2,858 7.6 -9.9°
Reaches altitude 10° 18:47:40 10° 23° (NNE) 1,887 6.6 -10.3°
Maximum altitude 18:51:34 48° 98° (E) 707 4.0 -10.9°
Drops below altitude 10° 18:55:09 10° 174° (S) 1,735 6.1 -11.4°
Sets 18:57:13 0° 180° (S) 2,599 7.0 -11.7°
